Location: Newark
(56.9500°N, 24.6667°E)
Time: 10:57:39
(UTC+00:00)

N. Korean satellite - Visible Passes

Search period start: 20 October 2019 00:00
Search period end: 30 October 2019 00:00
Orbit: 455 x 508 km, 97.2° (Epoch: 19 October)

Date Brightness Start Highest point End Pass type
(mag) Time Alt. Az. Time Alt. Az. Time Alt. Az.
20 Oct 10.1 03:13:04 10° NE 03:15:01 14° E 03:16:58 10° ESE visible
21 Oct 7.3 04:20:01 10° NNE 04:23:34 59° ESE 04:27:09 10° S visible
21 Oct 10.2 16:38:54 10° WSW 16:40:31 13° W 16:42:10 10° WNW visible
22 Oct 8.6 03:54:51 10° NNE 03:58:10 33° E 04:01:30 10° SSE visible
22 Oct 9.5 16:12:14 10° SW 16:14:57 21° W 16:17:43 10° NW visible
23 Oct 9.6 03:29:56 10° NE 03:32:41 20° E 03:35:25 10° SE visible
23 Oct 8.3 15:46:15 10° SSW 15:49:28 37° W 15:52:45 10° NNW visible
24 Oct 10.3 03:05:36 10° ENE 03:07:06 12° E 03:08:36 10° ESE visible
25 Oct 7.7 04:12:09 10° NNE 04:15:43 49° E 04:19:17 10° S visible
25 Oct 10.0 16:30:28 10° SW 16:32:35 15° W 16:34:42 10° NW visible
26 Oct 8.9 03:47:03 10° NNE 03:50:16 29° E 03:53:30 10° SSE visible
26 Oct 9.1 16:04:04 10° SSW 16:07:01 25° W 16:10:00 10° NW visible
27 Oct 9.9 03:22:14 10° NE 03:24:44 17° E 03:27:16 10° SE visible
27 Oct 7.9 15:38:12 10° S 15:41:32 44° W 15:44:57 10° NNW visible
28 Oct 10.5 02:58:26 10° ENE 02:59:08 10° E 02:59:50 10° E visible
28 Oct 6.9 04:29:32 10° NNE 04:33:12 75° ESE 04:36:53 10° S visible
28 Oct 10.4 16:49:26 10° W 16:50:13 11° W 16:50:58 10° WNW visible
29 Oct 8.1 04:04:18 10° NNE 04:07:48 42° E 04:11:20 10° S visible
29 Oct 9.8 16:22:07 10° SW 16:24:35 18° W 16:27:05 10° NW visible
